www.pogodaiklimat.ru

Погода и климат >> Архив погоды >> Россия >> Коми >> Воркута


АРХИВ ПОГОДЫ в Воркуте

Время (UTC), дата Ветер
(напр.,м/с)
 
Видим.   Явления Облачность Т
(С)
Тd
(С)
f
(%)
Тe
(С)
Тes
(С)
Комфортность P
(гПа)
Po
(гПа)
Тmin
(С)
Tmax
(С)
R
(мм)
R24
(мм)
S
(см)
18 16.08 Ю 6
{14}
10 км {ливн. осадки, дождь} 8/8 1020 м
[Cb cap]
+12.4 +8.6 78 +10 +10 тепло 1005.0 984.6
21 16.08 Ю 6 10 км слаб. дождь 10/10 870 м
[Sc]
+12.4 +9.7 84 +10 +10 тепло 1003.5 983.1
00 17.08 Ю 8-13
{14}
10 км в посл. час дождь 10/10 240 м
[Frnb]
+11.3 +10.9 97 +8 +8 тепло 1003.5 983.0
03 17.08 ЮЗ 9-14
{14}
4000 м слаб. дождь 10/10 240 м
[Frnb]
+11.5 +10.9 96 +8 +8 по сезону 1003.3 982.8 +10.4 2
06 17.08 З 8-13
{14}
10 км в посл. час дождь 10/10 180 м
[Frnb]
+9.9 +9.3 96 +6 +6 прохладно 1006.9 986.4 +9.6
09 17.08 З 8-13
{13}
10 км в посл. час морось 10/10 150 м
[Frnb]
+9.2 +8.6 96 +5 +5 прохладно 1010.4 989.6
12 17.08 З 6
{13}
4000 м в посл. час морось 10/10 180 м
[Frnb]
+9.5 +8.7 95 +6 +6 прохладно 1013.7 992.8
15 17.08 З 7
{11}
4000 м дымка 10/10 180 м
[Frnb]
+8.9 +8.1 95 +5 +5 прохладно 1016.2 995.3 +11.6 1
18 17.08 СЗ 4 10 км 6/6 450 м
[Sc]
+6.4 +5.3 93 +3 +3 прохладно 1017.1 996.1
21 17.08 СЗ 3 10 км 10/10 270 м
[Sc]
+5.6 +4.7 94 +2 +2 прохладно 1019.3 998.0
00 18.08 СЗ 3 4000 м дымка 10/10 120 м
[Frnb]
+4.3 +3.8 97 0 0 прохладно 1020.9 999.6
03 18.08 З 2 4000 м дымка 10/10 150 м
[Frnb]
+4.9 +4.2 95 +2 +2 прохладно 1022.5 1001.2 +4.1
06 18.08 ЮЗ 2 10 км 10/6 330 м
[Sc Ac und]
+8.0 +5.1 82 +6 +7 по сезону 1023.1 1002.0
09 18.08 штиль 0 10 км 10/10 480 м
[Sc]
+10.9 +8.0 82 +10 +10 по сезону 1023.5 1002.6
12 18.08 СЗ 2 10 км 10/10 1260 м
[Sc]
+12.6 +8.8 78 +12 +12 по сезону 1024.6 1003.8
15 18.08 СЗ 3 10 км 10/6 1230 м
[Sc Cs]
+12.0 +8.8 81 +10 +10 по сезону 1025.4 1004.6 +13.3
18 18.08 штиль 0 10 км 8/8 720 м
[Sc]
+8.6 +7.8 95 +8 +8 по сезону 1026.9 1005.8
21 18.08 Ю 1 2000 м дымка 6/0
[Ac trans]
+5.1 +4.6 97 +4 +4 по сезону 1027.8 1006.4
00 19.08 штиль 0 10 км в посл. час туман 8/8 720 м
[Sc]
+4.3 +4.1 99 +3 +3 по сезону 1028.7 1007.3
03 19.08 штиль 0 10 км 8/8 800 м
[Sc]
+7.5 +7.1 97 +6 +7 по сезону 1029.9 1008.6 +2.9
06 19.08 штиль 0 10 км 10/10 720 м
[Sc]
+11.8 +8.4 80 +11 +11 тепло 1030.0 1009.0
09 19.08 штиль 0 10 км 9/5 1500 м
[Cu hum Ci fib]
+15.1 +9.1 67 +15 +19 тепло 1029.2 1008.5
12 19.08 штиль 0 10 км 8/3 1000 м
[Cu hum Ci fib]
+16.5 +8.5 59 +16 +19 тепло 1028.6 1008.0
15 19.08 С 2 10 км 3/0
[Ci fib]
+16.3 +11.1 71 +16 +17 тепло 1028.3 1007.7 +16.9
18 19.08 В 2 10 км 6/0
[Ac lent Ci fib]
+12.4 +10.5 88 +11 +11 тепло 1028.7 1007.8
21 19.08 штиль 0 10 км ясно +9.9 +9.1 95 +9 +9 тепло 1028.0 1007.1
00 20.08 штиль 0 10 км ясно +7.3 +6.9 97 +6 +6 по сезону 1028.3 1007.1
03 20.08 С 1 10 км ясно +10.0 +8.6 91 +9 +12 по сезону 1028.0 1007.1 +6.4
06 20.08 В 2 10 км ясно +18.2 +11.2 64 +19 +25 тепло 1026.8 1006.4
09 20.08 ЮВ 2 10 км 3/3 1500 м
[Cu hum]
+20.2 +10.5 54 +22 +27 комфорт 1025.5 1005.3
12 20.08 Ю 3 10 км 8/8 720 м
[Cu hum]
+20.9 +10.5 51 +23 +24 комфорт 1024.9 1004.7
15 20.08 Ю 2 10 км 4/4 1000 м
[Cu hum]
+18.4 +13.1 71 +19 +19 тепло 1024.6 1004.2 +21.3
18 20.08 Ю 3 10 км 3/3 1000 м
[Cu hum]
+12.9 +10.8 87 +11 +11 тепло 1025.4 1004.6
21 20.08 Ю 3 10 км 6/3 1000 м
[Sc Ac trans]
+11.0 +10.0 94 +9 +9 тепло 1025.7 1004.8
00 21.08 ЮВ 2 10 км 4/0
[Ac trans]
+8.4 +7.8 96 +6 +6 по сезону 1025.3 1004.2
03 21.08 В 2 10 км 9/0
[Ci fib]
+11.8 +9.2 84 +11 +12 тепло 1024.4 1003.6 +8.4
06 21.08 Ю 5 10 км 8/0
[Ci fib]
+17.6 +10.3 62 +17 +20 тепло 1023.1 1002.6
09 21.08 Ю 4 10 км 8/0
[Cc]
+20.0 +10.2 53 +21 +25 комфорт 1021.3 1001.0
12 21.08 Ю 4 10 км 8/0
[Cs]
+19.5 +10.2 55 +21 +22 комфорт 1020.3 1000.0
15 21.08 Ю 3 10 км 10/0
[Cs]
+16.6 +11.4 71 +16 +16 тепло 1019.1 998.7 +21.0
18 21.08 ЮВ 3 10 км 10/0
[Ac und Ci fib]
+11.8 +9.6 86 +10 +10 тепло 1017.8 997.2
21 21.08 ЮВ 4 10 км 10/0
[Ci fib]
+11.4 +9.2 86 +9 +9 тепло 1016.1 995.4
00 22.08 Ю 1 10 км 8/0
[Cs]
+9.6 +8.2 91 +9 +9 тепло 1015.1 994.2
03 22.08 Ю 4 10 км 10/0
[Ac trans Cs]
+13.0 +9.9 81 +11 +12 тепло 1013.6 993.0 +8.5
06 22.08 ЮЗ 4 10 км 10/10 210 м
[Frnb]
+14.7 +12.9 89 +13 +13 тепло 1013.4 993.0
09 22.08 З 4 10 км в посл. час ливневой дождь 10/10 180 м
[Cb cap]
+13.2 +12.7 97 +11 +11 тепло 1013.5 992.9
12 22.08 СЗ 6 10 км в посл. час ливневой дождь 10/10 240 м
[Cb cap]
+12.9 +12.0 94 +10 +10 по сезону 1013.8 993.2
15 22.08 С 4
{10}
10 км 10/6 400 м
[Cb cap Ac und]
+12.6 +10.7 88 +11 +11 тепло 1014.6 994.0 +15.1 2
18 22.08 Ю 2 10 км 8/8 480 м
[Sc]
+9.0 +8.2 95 +7 +7 по сезону 1014.7 993.8
21 22.08 Ю 3 4000 м дымка ясно +6.5 +6.1 97 +3 +3 по сезону 1014.0 993.0
00 23.08 Ю 2 4000 м дымка 10/6 420 м
[Sc]
+7.7 +7.5 99 +5 +5 по сезону 1013.8 992.8
03 23.08 ЮВ 2 10 км 8/0
[Ac trans Ci fib]
+10.7 +10.1 96 +9 +10 тепло 1012.1 991.5 +5.4
06 23.08 В 3 10 км 10/0
[Ac trans Ci fib]
+13.4 +10.1 80 +12 +14 тепло 1010.5 990.0
09 23.08 В 2 10 км 10/0
[Cs]
+15.9 +10.6 71 +16 +21 тепло 1008.5 988.3
12 23.08 Ю 1 10 км 10/3 1000 м
[Cu hum As op Cs]
+17.2 +9.1 59 +18 +19 тепло 1007.4 987.3

 

Местоположение метеостанции Воркута (Коми, Россия): широта 67.48 долгота 63.97 высота над уровнем моря 172 м.

В архиве по умолчанию представлена погода в Воркуте за последнюю неделю. Архивные данные за месяц целиком и за предыдущие месяцы, начиная с января 2011 года, Вы можете получить, выбрав интересующий диапазон дат из раскрывающегося списка и нажав кнопку "Ввод!".


*Определитесь, кто Вы:
робот инопланетянин человек

Внимание! Время в таблицах - всемирное. Для получения местного времени необходимо прибавить поправку, которая равна 3 ч.

Смотрите также архив погоды в соседних городах и на ближайших метеорологических станциях:

Погода в Елецкой (Коми, Россия) (48 км)
Погода в Харпе (Ямало-Ненецкий АО, Россия) (109 км)
Погода в Салехарде (Ямало-Ненецкий АО, Россия) (158 км)
Погода в Петруни (Коми, Россия) (182 км)
Погода в Белоярске (Ямало-Ненецкий АО, Россия) (192 км)
Погода в Усть-Каре (Ненецкий АО, Россия) (201 км)
Погода в Питляре (Ямало-Ненецкий АО, Россия) (203 км)
Погода в Харуте (Ненецкий АО, Россия) (204 км)
Погода в Мужах (Ямало-Ненецкий АО, Россия) (236 км)
Погода в Хорей-Вере (Ненецкий АО, Россия) (254 км)

Пояснения к столбцам:

Ветер - указаны скорость ветра в м/с - средняя за 10 мин, порывы в срок и между сроками (в фигурных скобках) и направление, откуда дует ветер: С - северный, СВ - северо-восточный, В - восточный, ЮВ - юго-восточный, Ю - южный, ЮЗ - юго-западный, З - западный, СЗ - северо-западный.
Видимость - горизонтальная дальность видимости в метрах или километрах. При видимости от 1 до 10 км при отсутствии осадков обычно наблюдается дымка, при ухудшении видимости до 1 км и менее - туман. В сухую погоду видимость может ухудшаться дымом, пылью или мглою.
Явления - указаны атмосферные явления, наблюдавшиеся в срок или в последний час перед сроком; фигурными скобками обозначены явления, наблюдавшиеся между сроками (за 1-3 часа до срока); квадратными скобками обозначены град или гололедные отложения с указанием их диаметра в мм.
Облачность - указаны через наклонную черту общая и нижняя облачность в баллах и высота нижней границы облаков в метрах; квадратными скобками обозначены формы облаков: Ci - перистые, Cs - перисто-слоистые, Cc - перисто-кучевые, Ac - высококучевые, As - высокослоистые, Sc - слоисто-кучевые, Ns - слоисто-дождевые, Cu - кучевые, Cb - кучево-дождевые. Подробнее классификацию облаков см. в Атласе облаков (PDF).
T - Температура воздуха - температура, измеренная на высоте 2 м над землей.
Td - Температура точки росы - температура, при понижении до которой содержащийся в воздухе водяной пар достигнет насыщения.
f - Относительная влажность воздуха - влажноcть воздуха, измеренная на высоте 2 м над землей.
Te - Эффективная температура - температура, которую ощущает одетый по сезону человек в тени. Характеристика душности погоды. При расчете учитывается влияние влажности воздуха и скорости ветра на теплоощущения человека.
Tes - Эффективная температура на солнце - температура, которую ощущает человек, с поправкой на солнечный нагрев. Характеристика знойности погоды. Зависит от высоты солнца над горизонтом, облачности и скорости ветра. Ночью, в пасмурную погоду, а также при ветре 12 м/с и более поправка равна нулю.
P - Атмосферное давление - приведенное к уровню моря атмосферное давление.
Po - Атмосферное давление - измеренное на уровне метеостанции атмосферное давление.
Tmin - Минимальная температура - минимум температуры воздуха на высоте 2 м над землей.
Tmax - Максимальная температура - максимум температуры воздуха на высоте 2 м над землей.
R - Количество осадков - Количество выпавших осадков за период времени, мм. При наведении курсора мыши на число - период времени, за который выпало указанное количество осадков.
R24 - Количество осадков - Количество выпавших осадков за 24 часа, мм.
S - Снежный покров - Высота снежного покрова, см. При наведении курсора мыши на число - состояние снежного покрова и степень покрытия местности в баллах.